Weather History for KCLK - June, 2013

Change the Weather History Date:

Wednesday, June 26, 2013

  Actual Average (KCSM) Record (KCSM)
Temperature  
Mean Temperature 88 °F -  
Max Temperature 100 °F 88 °F 109 °F (2011)
Min Temperature 75 °F 66 °F 59 °F (2003)
Cooling Degree Days 22    
Growing Degree Days 38 (Base 50)    
Moisture  
Dew Point 58 °F    
Average Humidity 38    
Maximum Humidity 57    
Minimum Humidity 22    
Precipitation  
Precipitation 0.00 in - - ()
Sea Level Pressure  
Sea Level Pressure 29.86 in    
Wind  
Wind Speed 12 mph (SSE)    
Max Wind Speed 18 mph    
Max Gust Speed 25 mph    
Visibility 10 miles    
Events      
Averages and records for this station are not official NWS values.
T = Trace of Precipitation, MM = Missing Value Source: NWS Daily Summary

Daily Weather History Graph

Daily Weather History Graph

Search for Another Location

Airport or City:

Trip Planner

Search our weather history database for the weather conditions in past years. The results will help you decide how hot, cold, wet, or windy it might be!

Date:

Astronomy

Jun. 26, 2013 Rise Set
Actual Time 6:22 AM CDT 8:55 PM CDT
Civil Twilight 5:52 AM CDT 9:25 PM CDT
Nautical Twilight 5:14 AM CDT 10:02 PM CDT
Astronomical Twilight 4:33 AM CDT 10:43 PM CDT
Moon 11:28 PM CDT (6/26) 10:07 AM CDT (6/26)
Length of Visible Light 15h 33m
Length of Day
14h 33m
Waning Gibbous, 85% of the Moon is Illuminated
Jun 26
Waning Gibbous
Jun 29
Last Quarter
Jul 8
New
Jul 15
First Quarter
Jul 22
Full

Hourly Weather History & Observations

Time (CDT) Temp. Heat Index Dew Point Humidity Pressure Visibility Wind Dir Wind Speed Gust Speed Precip Events Conditions
12:15 AM 82.4 °F 82.0 °F 57.2 °F 42% 29.81 in 10.0 mi South 13.8 mph - N/A   Unknown
12:35 AM 82.4 °F 81.7 °F 55.4 °F 39% 29.81 in 10.0 mi SSE 11.5 mph - N/A   Unknown
12:55 AM 82.4 °F 81.7 °F 55.4 °F 39% 29.81 in 10.0 mi SSE 10.4 mph - N/A   Unknown
1:15 AM 82.4 °F 81.7 °F 55.4 °F 39% 29.81 in 10.0 mi SSE 10.4 mph - N/A   Unknown
1:35 AM 82.4 °F 81.7 °F 55.4 °F 39% 29.80 in 10.0 mi SSE 13.8 mph - N/A   Unknown
1:55 AM 82.4 °F 81.7 °F 55.4 °F 39% 29.80 in 10.0 mi SSE 12.7 mph - N/A   Unknown
2:15 AM 82.4 °F 81.7 °F 55.4 °F 39% 29.80 in 10.0 mi SSE 13.8 mph - N/A   Unknown
2:35 AM 80.6 °F 80.5 °F 55.4 °F 42% 29.80 in 10.0 mi SSE 12.7 mph 18.4 mph N/A   Unknown
2:55 AM 80.6 °F 80.5 °F 55.4 °F 42% 29.80 in 10.0 mi SSE 12.7 mph - N/A   Unknown
3:15 AM 80.6 °F 80.5 °F 55.4 °F 42% 29.80 in 10.0 mi South 12.7 mph - N/A   Unknown
3:35 AM 78.8 °F - 55.4 °F 44% 29.80 in 10.0 mi SSE 9.2 mph - N/A   Unknown
3:55 AM 78.8 °F - 55.4 °F 44% 29.80 in 10.0 mi SSE 10.4 mph - N/A   Unknown
4:15 AM 78.8 °F - 55.4 °F 44% 29.80 in 10.0 mi SSE 9.2 mph - N/A   Unknown
4:35 AM 78.8 °F - 57.2 °F 47% 29.80 in 10.0 mi South 6.9 mph - N/A   Unknown
4:55 AM 77.0 °F - 57.2 °F 50% 29.81 in 10.0 mi SE 8.1 mph - N/A   Unknown
5:15 AM 77.0 °F - 57.2 °F 50% 29.81 in 10.0 mi SSE 6.9 mph - N/A   Unknown
5:35 AM 77.0 °F - 57.2 °F 50% 29.81 in 10.0 mi South 9.2 mph - N/A   Unknown
5:55 AM 77.0 °F - 57.2 °F 50% 29.82 in 10.0 mi SSE 8.1 mph - N/A   Unknown
6:15 AM 77.0 °F - 57.2 °F 50% 29.83 in 10.0 mi SSE 6.9 mph - N/A   Unknown
6:35 AM 75.2 °F - 59.0 °F 57% 29.83 in 10.0 mi SSE 6.9 mph - N/A   Unknown
6:55 AM 75.2 °F - 59.0 °F 57% 29.84 in 10.0 mi SSE 10.4 mph - N/A   Unknown
7:15 AM 77.0 °F - 59.0 °F 54% 29.84 in 10.0 mi SSE 9.2 mph - N/A   Unknown
7:35 AM 78.8 °F - 59.0 °F 51% 29.85 in 10.0 mi SE 8.1 mph - N/A   Unknown
7:55 AM 78.8 °F - 59.0 °F 51% 29.86 in 10.0 mi SE 8.1 mph - N/A   Unknown
8:15 AM 78.8 °F - 59.0 °F 51% 29.86 in 10.0 mi SSE 11.5 mph - N/A   Unknown
8:35 AM 80.6 °F 81.1 °F 59.0 °F 48% 29.87 in 10.0 mi SE 10.4 mph - N/A   Unknown
8:55 AM 82.4 °F 82.5 °F 59.0 °F 45% 29.87 in 10.0 mi SSE 12.7 mph - N/A   Unknown
9:15 AM 82.4 °F 82.5 °F 59.0 °F 45% 29.88 in 10.0 mi SSE 11.5 mph - N/A   Unknown
9:55 AM 89.6 °F 88.9 °F 59.0 °F 36% 29.88 in 10.0 mi SSW 15.0 mph 20.7 mph N/A   Unknown
10:15 AM 89.6 °F 88.9 °F 59.0 °F 36% 29.88 in 10.0 mi South 11.5 mph - N/A   Unknown
10:35 AM 89.6 °F 88.9 °F 59.0 °F 36% 29.88 in 10.0 mi South 11.5 mph 17.3 mph N/A   Unknown
10:55 AM 91.4 °F 90.7 °F 59.0 °F 34% 29.88 in 10.0 mi South 12.7 mph 16.1 mph N/A   Unknown
11:15 AM 91.4 °F 90.7 °F 59.0 °F 34% 29.89 in 10.0 mi SSW 10.4 mph - N/A   Unknown
11:35 AM 91.4 °F 89.9 °F 57.2 °F 31% 29.89 in 10.0 mi SSE 11.5 mph - N/A   Unknown
11:55 AM 95.0 °F 93.7 °F 57.2 °F 28% 29.89 in 10.0 mi SSE 11.5 mph 18.4 mph N/A   Unknown
12:15 PM 95.0 °F 93.7 °F 57.2 °F 28% 29.89 in 10.0 mi South 12.7 mph 17.3 mph N/A   Unknown
12:35 PM 95.0 °F 93.7 °F 57.2 °F 28% 29.89 in 10.0 mi South 13.8 mph 18.4 mph N/A   Unknown
12:55 PM 96.8 °F 95.1 °F 55.4 °F 25% 29.89 in 10.0 mi South 11.5 mph 21.9 mph N/A   Unknown
1:15 PM 96.8 °F 95.1 °F 55.4 °F 25% 29.89 in 10.0 mi South 17.3 mph 21.9 mph N/A   Unknown
1:35 PM 96.8 °F 95.8 °F 57.2 °F 27% 29.88 in 10.0 mi SSE 12.7 mph - N/A   Unknown
1:55 PM 98.6 °F 97.6 °F 57.2 °F 25% 29.88 in 10.0 mi SSE 13.8 mph 21.9 mph N/A   Unknown
2:15 PM 98.6 °F 97.2 °F 55.4 °F 24% 29.88 in 10.0 mi SSE 16.1 mph 24.2 mph N/A   Unknown
2:35 PM 98.6 °F 97.2 °F 55.4 °F 24% 29.86 in 10.0 mi South 13.8 mph 23.0 mph N/A   Unknown
2:55 PM 100.4 °F 98.8 °F 55.4 °F 22% 29.86 in 10.0 mi SSE 15.0 mph - N/A   Unknown
3:15 PM 100.4 °F 99.7 °F 57.2 °F 24% 29.86 in 10.0 mi South 17.3 mph 24.2 mph N/A   Unknown
3:35 PM 100.4 °F 99.7 °F 57.2 °F 24% 29.86 in 10.0 mi SE 17.3 mph 24.2 mph N/A   Unknown
3:55 PM 100.4 °F 99.7 °F 57.2 °F 24% 29.86 in 10.0 mi South 18.4 mph 25.3 mph N/A   Unknown
4:15 PM 100.4 °F 99.7 °F 57.2 °F 24% 29.85 in 10.0 mi South 13.8 mph 23.0 mph N/A   Unknown
4:35 PM 100.4 °F 99.7 °F 57.2 °F 24% 29.86 in 10.0 mi SSE 15.0 mph 21.9 mph N/A   Unknown
4:55 PM 100.4 °F 99.7 °F 57.2 °F 24% 29.86 in 10.0 mi SSE 13.8 mph 23.0 mph N/A   Unknown
5:15 PM 100.4 °F 100.2 °F 59.0 °F 25% 29.86 in 10.0 mi SSE 16.1 mph 19.6 mph N/A   Unknown
5:35 PM 100.4 °F 100.2 °F 59.0 °F 25% 29.86 in 10.0 mi SSE 13.8 mph 20.7 mph N/A   Unknown
5:55 PM 98.6 °F 98.5 °F 59.0 °F 27% 29.86 in 10.0 mi SSE 16.1 mph 23.0 mph N/A   Unknown
6:15 PM 98.6 °F 98.5 °F 59.0 °F 27% 29.86 in 10.0 mi SSE 16.1 mph 23.0 mph N/A   Unknown
6:35 PM 98.6 °F 98.5 °F 59.0 °F 27% 29.86 in 10.0 mi South 15.0 mph 23.0 mph N/A   Unknown
6:55 PM 98.6 °F 98.5 °F 59.0 °F 27% 29.86 in 10.0 mi SSE 16.1 mph 20.7 mph N/A   Unknown
7:15 PM 96.8 °F 96.2 °F 59.0 °F 28% 29.86 in 10.0 mi SE 16.1 mph 23.0 mph N/A   Unknown
7:35 PM 96.8 °F 96.2 °F 59.0 °F 28% 29.86 in 10.0 mi SSE 17.3 mph 20.7 mph N/A   Unknown
7:55 PM 96.8 °F 96.2 °F 59.0 °F 28% 29.86 in 10.0 mi SSE 13.8 mph - N/A   Unknown
8:15 PM 95.0 °F 94.4 °F 59.0 °F 30% 29.87 in 10.0 mi SSE 13.8 mph - N/A   Unknown
8:35 PM 91.4 °F 92.1 °F 62.6 °F 38% 29.88 in 10.0 mi SE 13.8 mph - N/A   Unknown
8:55 PM 91.4 °F 92.1 °F 62.6 °F 38% 29.88 in 10.0 mi SE 15.0 mph 19.6 mph N/A   Unknown
9:15 PM 89.6 °F 91.1 °F 64.4 °F 43% 29.89 in 10.0 mi ESE 10.4 mph - N/A   Unknown
9:35 PM 87.8 °F 89.4 °F 64.4 °F 46% 29.90 in 10.0 mi ESE 13.8 mph - N/A   Unknown
9:55 PM 87.8 °F 89.4 °F 64.4 °F 46% 29.91 in 10.0 mi ESE 12.7 mph - N/A   Unknown
10:15 PM 86.0 °F 87.3 °F 64.4 °F 48% 29.91 in 10.0 mi ESE 13.8 mph 17.3 mph N/A   Unknown
10:35 PM 86.0 °F 87.3 °F 64.4 °F 48% 29.92 in 10.0 mi ESE 12.7 mph 18.4 mph N/A   Unknown
10:55 PM 86.0 °F 87.3 °F 64.4 °F 48% 29.93 in 10.0 mi ESE 12.7 mph - N/A   Unknown
11:15 PM 84.2 °F 85.6 °F 64.4 °F 51% 29.93 in 10.0 mi SE 16.1 mph - N/A   Unknown
11:35 PM 84.2 °F 85.6 °F 64.4 °F 51% 29.93 in 10.0 mi SE 15.0 mph 18.4 mph N/A   Unknown
11:55 PM 84.2 °F 85.6 °F 64.4 °F 51% 29.93 in 10.0 mi SE 13.8 mph - N/A   Unknown